[[{"header":{"parameterUnit":"m.s-1","parameterCategory":1,"la1":30.2992,"la2":30.254,"lo1":-89.0895,"lo2":-89.0443,"dy":0.0025,"dx":0.0025,"nx":19,"ny":19,"refTime":"2026-05-13T03:00:00:Z","depth":0,"parameterNumber":2,"parameterNumberName":"U-component_of_WINDS"},"data":[0,0,0,0.558,0.558,0.5621,0.5621,0.567,0.5671,0,0,0,0,0,0,0,0,0,0,0,0.5563,0.5564,0.5579,0.558,0.5621,0.5621,0.567,0.5671,0,0,0,0,0,0,0,0,0,0,0,0.5563,0.5563,0.5564,0.558,0.5621,0.5621,0.567,0.5641,0,0,0,0,0,0,0,0,0,0,0.5602,0.5583,0.5563,0.5564,0.5581,0.5621,0.5621,0.564,0.5643,0.565,0,0.5653,0,0.5662,0.5674,0.5674,0,0,0,0.5584,0.558,0.5594,0.5564,0.5581,0.5621,0.5604,0.5641,0.5645,0.5654,0.5654,0.5656,0.5663,0.5674,0.5674,0.5698,0.5698,0,0,0.5582,0.5569,0.5592,0.5597,0.5588,0.5602,0.5605,0.5644,0.5643,0.5654,0.5657,0.5664,0.5674,0.5674,0.5698,0.5698,0,0,0,0.5573,0.5567,0.5581,0.5594,0.5602,0.5603,0.5606,0.5642,0.5647,0.5658,0.5665,0.5674,0.5675,0.5698,0.5698,0.5683,0,0,0,0.5572,0.5562,0.558,0.5572,0.5601,0.5622,0.5603,0.5644,0.5649,0.5664,0.5674,0.5675,0.5699,0.5698,0.5683,0.5677,0,0,0,0.5562,0.5561,0.5565,0.5572,0.5588,0.5621,0.5629,0.5646,0.5653,0.5674,0.5675,0.5699,0.5698,0.5684,0.5678,0.568,0,0,0,0.5549,0.5551,0.5565,0.557,0.5588,0.5611,0.5629,0.5647,0.5663,0.5675,0.5699,0.5698,0.5684,0.5679,0.5681,0.5679,0.5677,0,0,0.5544,0.555,0.5554,0.5568,0.5585,0.5606,0.5621,0.5648,0.5663,0.5686,0.5687,0.5683,0.5678,0.568,0.5671,0.567,0,0,0,0.5549,0.5552,0.5559,0.5572,0.5592,0.561,0.5636,0.5646,0.5666,0.5672,0.5685,0.5682,0.5684,0.5684,0.5683,0.5685,0.5698,0.5698,0.5698,0.5524,0.5542,0.5551,0.5574,0.5587,0.5614,0.5627,0.5646,0.5661,0.5664,0.5671,0.5663,0.5662,0.5661,0.5664,0.5672,0.5671,0.5671,0.5671,0.552,0.5527,0.5546,0.5562,0.5582,0.5596,0.5623,0.5633,0.5651,0.5659,0.5661,0.5669,0.5659,0.5662,0.567,0.5671,0.5671,0.5671,0.5671,0.5505,0.5512,0.5524,0.5546,0.5561,0.5586,0.5601,0.5619,0.5637,0.5639,0.5649,0.5649,0.5652,0.5643,0.5642,0.5642,0.5642,0.5642,0.5642,0.5485,0.5499,0.5509,0.5531,0.5543,0.5561,0.559,0.5602,0.5622,0.5634,0.5634,0.5649,0.5654,0.5655,0.5642,0.5642,0.5642,0.5642,0.5642,0.5474,0.5479,0.5494,0.5506,0.5535,0.555,0.5573,0.5597,0.5611,0.5619,0.5634,0.5635,0.5642,0.5643,0.5644,0.5629,0.5629,0.5629,0.5629,0.5461,0.5467,0.5487,0.5504,0.5524,0.5547,0.5566,0.5589,0.5615,0.5625,0.563,0.5633,0.5633,0.564,0.5642,0.5643,0.5628,0.5628,0.5628,0.5455,0.5464,0.5475,0.5498,0.5522,0.5544,0.5563,0.5584,0.5615,0.5628,0.5633,0.5633,0.5638,0.5639,0.5651,0.5653,0.5656,0,0]},{"header":{"parameterUnit":"m.s-1","parameterCategory":1,"la1":30.2992,"la2":30.254,"lo1":-89.0895,"lo2":-89.0443,"dy":0.0025,"dx":0.0025,"nx":19,"ny":19,"refTime":"2026-05-13T03:00:00:Z","depth":0,"parameterNumber":3,"parameterNumberName":"V-component_of_WINDS"},"data":[0,0,0,-2.2025,-2.2027,-2.2119,-2.2119,-2.2232,-2.2233,0,0,0,0,0,0,0,0,0,0,0,-2.1997,-2.1998,-2.2025,-2.2028,-2.2119,-2.2119,-2.2232,-2.2233,0,0,0,0,0,0,0,0,0,0,0,-2.1997,-2.1998,-2.1999,-2.2028,-2.2119,-2.2119,-2.2231,-2.2164,0,0,0,0,0,0,0,0,0,0,-2.2076,-2.2049,-2.1998,-2.1999,-2.2028,-2.2118,-2.2119,-2.216,-2.2168,-2.2189,0,-2.2209,0,-2.2223,-2.224,-2.2241,0,0,0,-2.2028,-2.2043,-2.2068,-2.1999,-2.2029,-2.2118,-2.2078,-2.2165,-2.2173,-2.2199,-2.2211,-2.2215,-2.2225,-2.2241,-2.2242,-2.2366,-2.2367,0,0,-2.2023,-2.2013,-2.2063,-2.2074,-2.2061,-2.2075,-2.208,-2.217,-2.2181,-2.2211,-2.2218,-2.2227,-2.2242,-2.2243,-2.2366,-2.2367,0,0,0,-2.2008,-2.2009,-2.2033,-2.2069,-2.2086,-2.2077,-2.2084,-2.2177,-2.2186,-2.2219,-2.2228,-2.2242,-2.2244,-2.2365,-2.2366,-2.2384,0,0,0,-2.2005,-2.2001,-2.2031,-2.2025,-2.2084,-2.2133,-2.2089,-2.218,-2.219,-2.2227,-2.2242,-2.2245,-2.2365,-2.2366,-2.2382,-2.2394,0,0,0,-2.1992,-2.1999,-2.2012,-2.2025,-2.2064,-2.2132,-2.2146,-2.2182,-2.2196,-2.2241,-2.2245,-2.2364,-2.2366,-2.2381,-2.2391,-2.2423,0,0,0,-2.1974,-2.2026,-2.2012,-2.2074,-2.2063,-2.2143,-2.2145,-2.2205,-2.2246,-2.2243,-2.2365,-2.2366,-2.238,-2.2389,-2.2421,-2.2448,-2.2458,0,0,-2.2034,-2.2033,-2.207,-2.206,-2.214,-2.213,-2.2212,-2.2259,-2.2272,-2.2334,-2.2337,-2.2383,-2.2391,-2.2423,-2.2521,-2.2529,0,0,0,-2.2085,-2.2112,-2.2135,-2.2175,-2.2212,-2.2245,-2.2281,-2.2298,-2.2351,-2.2302,-2.2404,-2.2409,-2.2428,-2.2441,-2.2448,-2.2465,-2.2372,-2.2372,-2.2372,-2.2154,-2.217,-2.2232,-2.2258,-2.2296,-2.2333,-2.2364,-2.2394,-2.2397,-2.2421,-2.2439,-2.2497,-2.2512,-2.2517,-2.2534,-2.2455,-2.2455,-2.2455,-2.2455,-2.2243,-2.2282,-2.2287,-2.2349,-2.2364,-2.2416,-2.2453,-2.2454,-2.2504,-2.2485,-2.2502,-2.2479,-2.2526,-2.2542,-2.2457,-2.2456,-2.2456,-2.2456,-2.2456,-2.2289,-2.231,-2.2332,-2.239,-2.2433,-2.2458,-2.2506,-2.2518,-2.253,-2.2548,-2.2568,-2.2567,-2.2568,-2.2557,-2.2557,-2.2557,-2.2557,-2.2557,-2.2558,-2.2327,-2.2351,-2.239,-2.2436,-2.2463,-2.25,-2.2538,-2.2564,-2.2596,-2.2601,-2.2601,-2.2602,-2.2528,-2.2509,-2.2561,-2.256,-2.256,-2.2559,-2.2559,-2.2409,-2.2393,-2.2454,-2.2481,-2.2535,-2.2577,-2.2593,-2.2646,-2.267,-2.2693,-2.269,-2.2634,-2.2634,-2.2628,-2.2612,-2.2688,-2.2688,-2.2688,-2.2688,-2.2447,-2.2449,-2.2514,-2.2557,-2.26,-2.2621,-2.2688,-2.2718,-2.2746,-2.2761,-2.2753,-2.2733,-2.2727,-2.273,-2.2722,-2.2707,-2.2805,-2.2805,-2.2805,-2.2498,-2.2504,-2.256,-2.2589,-2.2632,-2.2669,-2.2732,-2.278,-2.2809,-2.281,-2.2774,-2.2769,-2.2737,-2.2726,-2.2725,-2.2713,-2.2686,0,0]}]]